Hourly Weather Golaszyn

Today, 17 May, Monday

Time Temperature Precipitation Wind Pressure Humidity
00:00 +9°C° 0 mm 2 mps 742 mmHg 88%
01:00 +8°C° 0 mm 2 mps 742 mmHg 90%
02:00 +8°C° 0 mm 2 mps 742 mmHg 90%
03:00 +8°C° 0 mm 2 mps 742 mmHg 91%
04:00 +8°C° 0 mm 2 mps 742 mmHg 92%
05:00 +9°C° 0 mm 2 mps 742 mmHg 88%
06:00 +10°C° 0 mm 2 mps 742 mmHg 84%
07:00 +13°C° 0 mm 2 mps 742 mmHg 80%
08:00 +14°C° 0 mm 2 mps 742 mmHg 76%
09:00 +15°C° 0 mm 2 mps 743 mmHg 72%
10:00 +17°C° 0 mm 2 mps 743 mmHg 68%
11:00 +17°C° 0.2 mm 3 mps 743 mmHg 67%
12:00 +17°C° 0.2 mm 3 mps 743 mmHg 66%
13:00 +17°C° 0.2 mm 3 mps 743 mmHg 66%
14:00 +17°C° 0.6 mm 3 mps 743 mmHg 71%
15:00 +15°C° 0.6 mm 4 mps 743 mmHg 77%
16:00 +14°C° 0.6 mm 4 mps 743 mmHg 83%
17:00 +13°C° 0.3 mm 3 mps 743 mmHg 83%
18:00 +13°C° 0.3 mm 3 mps 743 mmHg 83%
19:00 +13°C° 0.3 mm 2 mps 743 mmHg 83%
20:00 +12°C° 0.1 mm 3 mps 743 mmHg 86%
21:00 +11°C° 0.1 mm 3 mps 744 mmHg 89%
22:00 +10°C° 0.1 mm 4 mps 744 mmHg 93%
23:00 +10°C° 0 mm 4 mps 744 mmHg 93%

Tomorrow, 18 May, Tuesday

Time Temperature Precipitation Wind Pressure Humidity
00:00 +9°C° 0 mm 5 mps 744 mmHg 93%
01:00 +9°C° 0 mm 5 mps 745 mmHg 93%
02:00 +8°C° 0 mm 5 mps 745 mmHg 93%
03:00 +8°C° 0 mm 5 mps 745 mmHg 93%
04:00 +8°C° 0 mm 5 mps 745 mmHg 93%
05:00 +8°C° 0 mm 5 mps 745 mmHg 92%
06:00 +9°C° 0 mm 6 mps 746 mmHg 91%
07:00 +9°C° 0 mm 6 mps 746 mmHg 89%
08:00 +10°C° 0 mm 6 mps 746 mmHg 86%
09:00 +10°C° 0 mm 5 mps 746 mmHg 83%
10:00 +12°C° 0 mm 5 mps 747 mmHg 80%
11:00 +13°C° 0.2 mm 5 mps 747 mmHg 76%
12:00 +14°C° 0.2 mm 5 mps 747 mmHg 73%
13:00 +15°C° 0.2 mm 6 mps 747 mmHg 69%
14:00 +15°C° 0.2 mm 5 mps 747 mmHg 68%
15:00 +15°C° 0.2 mm 5 mps 747 mmHg 68%
16:00 +15°C° 0.2 mm 5 mps 747 mmHg 67%
17:00 +14°C° 0.1 mm 5 mps 747 mmHg 72%
18:00 +13°C° 0.1 mm 4 mps 747 mmHg 76%
19:00 +12°C° 0.1 mm 3 mps 747 mmHg 81%
20:00 +11°C° 0 mm 3 mps 747 mmHg 85%
21:00 +10°C° 0 mm 3 mps 748 mmHg 89%
22:00 +8°C° 0 mm 3 mps 748 mmHg 94%
23:00 +8°C° 0.1 mm 3 mps 748 mmHg 94%

Day after tomorrow, 19 May, Wednesday

Time Temperature Precipitation Wind Pressure Humidity
00:00 +7°C° 0.1 mm 4 mps 748 mmHg 95%
01:00 +7°C° 0.1 mm 4 mps 749 mmHg 96%
02:00 +6°C° 0 mm 4 mps 749 mmHg 95%
03:00 +6°C° 0 mm 4 mps 749 mmHg 95%
04:00 +6°C° 0 mm 4 mps 749 mmHg 95%
05:00 +7°C° 0 mm 4 mps 749 mmHg 92%
06:00 +7°C° 0 mm 4 mps 749 mmHg 90%
07:00 +8°C° 0 mm 5 mps 750 mmHg 87%
08:00 +10°C° 0.1 mm 4 mps 750 mmHg 85%
09:00 +10°C° 0.1 mm 4 mps 750 mmHg 84%
10:00 +11°C° 0.1 mm 4 mps 750 mmHg 83%
11:00 +11°C° 0.4 mm 4 mps 750 mmHg 82%
12:00 +12°C° 0.4 mm 5 mps 750 mmHg 82%
13:00 +12°C° 0.4 mm 5 mps 750 mmHg 82%
14:00 +12°C° 0.3 mm 5 mps 750 mmHg 82%
15:00 +12°C° 0.3 mm 5 mps 750 mmHg 83%
16:00 +10°C° 0.3 mm 6 mps 750 mmHg 83%
17:00 +10°C° 0.1 mm 5 mps 751 mmHg 84%
18:00 +9°C° 0.1 mm 5 mps 751 mmHg 85%
19:00 +10°C° 0.1 mm 4 mps 751 mmHg 86%
20:00 +8°C° 0 mm 4 mps 751 mmHg 87%
21:00 +9°C° 0 mm 3 mps 751 mmHg 88%
22:00 +8°C° 0 mm 3 mps 752 mmHg 89%
23:00 +8°C° 0 mm 3 mps 752 mmHg 89%

20 May, Thursday

Time Temperature Precipitation Wind Pressure Humidity
00:00 +8°C° 0 mm 3 mps 752 mmHg 89%
01:00 +8°C° 0 mm 3 mps 752 mmHg 88%
02:00 +7°C° 0 mm 3 mps 752 mmHg 90%
03:00 +5°C° 0 mm 3 mps 752 mmHg 91%
04:00 +5°C° 0 mm 2 mps 752 mmHg 93%
05:00 +7°C° 0 mm 3 mps 752 mmHg 89%
06:00 +8°C° 0 mm 3 mps 753 mmHg 85%
07:00 +10°C° 0 mm 3 mps 753 mmHg 81%
08:00 +11°C° 0.2 mm 4 mps 753 mmHg 77%
09:00 +12°C° 0.2 mm 4 mps 753 mmHg 73%
10:00 +14°C° 0.2 mm 4 mps 753 mmHg 69%
11:00 +14°C° 0.5 mm 5 mps 753 mmHg 69%
12:00 +14°C° 0.5 mm 5 mps 753 mmHg 69%
13:00 +14°C° 0.5 mm 5 mps 753 mmHg 68%
14:00 +14°C° 0.3 mm 5 mps 753 mmHg 67%
15:00 +14°C° 0.3 mm 5 mps 753 mmHg 67%
16:00 +14°C° 0.3 mm 4 mps 753 mmHg 66%
17:00 +13°C° 0.1 mm 4 mps 753 mmHg 69%
18:00 +12°C° 0.1 mm 4 mps 753 mmHg 73%
19:00 +11°C° 0.1 mm 4 mps 754 mmHg 77%
20:00 +8°C° 0 mm 4 mps 754 mmHg 81%
21:00 +8°C° 0 mm 3 mps 754 mmHg 85%
22:00 +5°C° 0 mm 3 mps 755 mmHg 88%
23:00 +5°C° 0 mm 3 mps 755 mmHg 89%

21 May, Friday

Time Temperature Precipitation Wind Pressure Humidity
00:00 +4°C° 0 mm 3 mps 755 mmHg 91%
01:00 +4°C° 0 mm 3 mps 755 mmHg 92%
02:00 +4°C° 0 mm 3 mps 755 mmHg 93%
03:00 +3°C° 0 mm 3 mps 755 mmHg 94%
04:00 +3°C° 0 mm 3 mps 755 mmHg 95%
05:00 +4°C° 0 mm 4 mps 755 mmHg 90%
06:00 +6°C° 0 mm 4 mps 755 mmHg 85%
07:00 +7°C° 0 mm 5 mps 755 mmHg 80%
08:00 +9°C° 0 mm 5 mps 754 mmHg 73%
09:00 +10°C° 0 mm 5 mps 754 mmHg 67%
10:00 +13°C° 0 mm 5 mps 754 mmHg 60%
11:00 +13°C° 0 mm 4 mps 753 mmHg 60%
12:00 +14°C° 0 mm 3 mps 753 mmHg 59%
13:00 +14°C° 0 mm 3 mps 753 mmHg 58%
14:00 +15°C° 0 mm 2 mps 752 mmHg 58%
15:00 +16°C° 0 mm 2 mps 752 mmHg 58%
16:00 +16°C° 0 mm 1 mps 751 mmHg 58%
17:00 +15°C° 0.1 mm 2 mps 751 mmHg 65%
18:00 +13°C° 0.1 mm 3 mps 751 mmHg 71%
19:00 +12°C° 0.1 mm 3 mps 750 mmHg 78%
20:00 +12°C° 0.2 mm 3 mps 750 mmHg 82%
21:00 +11°C° 0.2 mm 3 mps 750 mmHg 87%
22:00 +12°C° 0.2 mm 2 mps 750 mmHg 91%
23:00 +10°C° 0 mm 3 mps 749 mmHg 91%

22 May, Saturday

Time Temperature Precipitation Wind Pressure Humidity
00:00 +10°C° 0 mm 3 mps 749 mmHg 91%
01:00 +10°C° 0 mm 3 mps 748 mmHg 90%
02:00 +10°C° 0 mm 3 mps 748 mmHg 90%
03:00 +9°C° 0 mm 3 mps 747 mmHg 90%
04:00 +9°C° 0 mm 3 mps 747 mmHg 89%
05:00 +10°C° 0 mm 4 mps 747 mmHg 85%
06:00 +11°C° 0 mm 4 mps 747 mmHg 82%
07:00 +12°C° 0 mm 4 mps 747 mmHg 78%
08:00 +14°C° 0 mm 5 mps 747 mmHg 75%
09:00 +15°C° 0 mm 5 mps 747 mmHg 71%
10:00 +16°C° 0 mm 5 mps 747 mmHg 68%
11:00 +16°C° 0.2 mm 5 mps 747 mmHg 69%
12:00 +16°C° 0.2 mm 5 mps 747 mmHg 70%
13:00 +16°C° 0.2 mm 5 mps 747 mmHg 71%
14:00 +15°C° 0.4 mm 5 mps 747 mmHg 74%
15:00 +14°C° 0.4 mm 5 mps 748 mmHg 77%
16:00 +13°C° 0.4 mm 4 mps 748 mmHg 80%
17:00 +13°C° 0 mm 4 mps 748 mmHg 80%
18:00 +13°C° 0 mm 3 mps 748 mmHg 81%
19:00 +13°C° 0 mm 2 mps 748 mmHg 81%
20:00 +12°C° 0 mm 2 mps 748 mmHg 82%
21:00 +10°C° 0 mm 2 mps 748 mmHg 82%
22:00 +9°C° 0 mm 2 mps 749 mmHg 83%
23:00 +8°C° 0 mm 2 mps 748 mmHg 83%
Show more